TimeCST,TemperatureF,Dew PointF,Humidity,Sea Level PressureIn,VisibilityMPH,Wind Direction,Wind SpeedMPH,Gust SpeedMPH,PrecipitationIn,Events,Conditions,WindDirDegrees,DateUTC
12:43 AM,28.4,15.8,59,30.19,10.0,South,8.1,-,N/A,,Overcast,180,2013-01-25 06:43:00
12:55 AM,28.6,15.3,58,30.19,10.0,South,3.5,-,N/A,,Overcast,180,2013-01-25 06:55:00
12:59 AM,28.4,15.8,59,30.19,10.0,South,3.5,-,N/A,,Overcast,190,2013-01-25 06:59:00
1:04 AM,28.4,15.8,59,30.19,10.0,South,8.1,-,N/A,,Overcast,170,2013-01-25 07:04:00
1:54 AM,28.4,19.4,69,30.17,10.0,South,8.1,-,N/A,,Overcast,180,2013-01-25 07:54:00
1:55 AM,28.0,19.2,70,30.17,10.0,South,8.1,-,N/A,,Overcast,180,2013-01-25 07:55:00
2:45 AM,28.4,21.2,74,30.16,10.0,South,8.1,-,N/A,,Overcast,180,2013-01-25 08:45:00
2:55 AM,28.2,21.7,77,30.16,10.0,South,6.9,-,N/A,,Overcast,190,2013-01-25 08:55:00
3:03 AM,28.4,21.2,74,30.15,10.0,South,6.9,-,N/A,,Overcast,180,2013-01-25 09:03:00
3:55 AM,28.2,22.3,78,30.14,10.0,SSW,3.5,-,N/A,,Overcast,210,2013-01-25 09:55:00
4:09 AM,28.4,23.0,80,30.14,10.0,Variable,3.5,-,N/A,,Overcast,0,2013-01-25 10:09:00
4:11 AM,28.4,24.8,86,30.14,9.0,WSW,6.9,-,N/A,,Overcast,250,2013-01-25 10:11:00
4:18 AM,28.4,24.8,86,30.15,6.0,WSW,3.5,-,N/A,,Overcast,240,2013-01-25 10:18:00
4:21 AM,28.4,24.8,86,30.16,6.0,Calm,Calm,-,N/A,,Overcast,0,2013-01-25 10:21:00
4:23 AM,28.4,24.8,86,30.16,7.0,West,4.6,-,N/A,,Overcast,270,2013-01-25 10:23:00
4:55 AM,27.1,26.8,99,30.15,4.0,Calm,Calm,-,N/A,,Overcast,0,2013-01-25 10:55:00
4:58 AM,26.6,26.6,100,30.15,3.0,Calm,Calm,-,N/A,,Light Freezing Drizzle,0,2013-01-25 10:58:00
5:06 AM,26.6,26.6,100,30.15,3.0,Calm,Calm,-,N/A,,Light Freezing Drizzle,0,2013-01-25 11:06:00
5:17 AM,26.6,26.6,100,30.14,4.0,Calm,Calm,-,N/A,,Light Freezing Drizzle,0,2013-01-25 11:17:00
5:23 AM,26.6,26.6,100,30.15,4.0,Calm,Calm,-,N/A,,Overcast,0,2013-01-25 11:23:00
5:27 AM,26.6,26.6,100,30.15,5.0,Calm,Calm,-,N/A,,Overcast,0,2013-01-25 11:27:00
5:51 AM,26.6,26.6,100,30.14,5.0,Calm,Calm,-,N/A,,Overcast,0,2013-01-25 11:51:00
5:55 AM,27.0,26.8,99,30.14,5.0,SSW,3.5,-,0.00,,Overcast,210,2013-01-25 11:55:00
6:19 AM,26.6,26.6,100,30.13,7.0,SSW,3.5,-,N/A,,Overcast,200,2013-01-25 12:19:00
6:24 AM,26.6,26.6,100,30.13,7.0,Variable,3.5,-,N/A,,Overcast,0,2013-01-25 12:24:00
6:31 AM,26.6,26.6,100,30.13,7.0,SW,3.5,-,N/A,,Overcast,220,2013-01-25 12:31:00
6:32 AM,26.6,26.6,100,30.13,7.0,SW,3.5,-,N/A,,Overcast,220,2013-01-25 12:32:00
6:55 AM,26.6,26.2,99,30.14,7.0,Calm,Calm,-,N/A,,Overcast,0,2013-01-25 12:55:00
6:58 AM,26.6,26.6,100,30.15,7.0,Calm,Calm,-,N/A,,Overcast,0,2013-01-25 12:58:00
7:04 AM,26.6,26.6,100,30.15,7.0,Calm,Calm,-,N/A,,Mostly Cloudy,0,2013-01-25 13:04:00
7:07 AM,26.6,26.6,100,30.15,6.0,Calm,Calm,-,N/A,,Mostly Cloudy,0,2013-01-25 13:07:00
7:09 AM,26.6,24.8,93,30.15,6.0,Calm,Calm,-,N/A,,Scattered Clouds,0,2013-01-25 13:09:00
7:24 AM,26.6,24.8,93,30.17,5.0,West,3.5,-,N/A,,Mostly Cloudy,280,2013-01-25 13:24:00
7:55 AM,26.8,26.6,99,30.17,6.0,WSW,3.5,-,N/A,,Overcast,250,2013-01-25 13:55:00
8:55 AM,28.9,27.1,93,30.19,10.0,Variable,3.5,-,N/A,,Overcast,0,2013-01-25 14:55:00
9:05 AM,30.2,26.6,86,30.19,10.0,Variable,4.6,-,N/A,,Overcast,0,2013-01-25 15:05:00
9:55 AM,32.5,25.0,74,30.20,10.0,WNW,5.8,-,N/A,,Overcast,290,2013-01-25 15:55:00
10:42 AM,35.6,24.8,65,30.20,10.0,NW,10.4,17.3,N/A,,Scattered Clouds,310,2013-01-25 16:42:00
10:55 AM,36.7,24.3,61,30.20,10.0,NW,10.4,-,N/A,,Partly Cloudy,310,2013-01-25 16:55:00
11:55 AM,39.9,24.1,53,30.18,10.0,Variable,4.6,-,N/A,,Clear,0,2013-01-25 17:55:00
12:55 PM,42.4,23.2,47,30.18,10.0,WNW,8.1,-,N/A,,Clear,300,2013-01-25 18:55:00
1:55 PM,44.8,23.2,43,30.17,10.0,WNW,5.8,-,N/A,,Clear,290,2013-01-25 19:55:00
2:55 PM,47.3,23.4,39,30.17,10.0,WNW,8.1,-,N/A,,Clear,290,2013-01-25 20:55:00
3:55 PM,47.3,23.2,39,30.17,10.0,West,6.9,-,N/A,,Clear,270,2013-01-25 21:55:00
4:55 PM,45.5,22.6,41,30.19,10.0,WNW,4.6,-,N/A,,Clear,290,2013-01-25 22:55:00
5:55 PM,42.3,22.1,45,30.20,10.0,Calm,Calm,-,N/A,,Clear,0,2013-01-25 23:55:00
6:55 PM,40.1,21.6,48,30.21,10.0,Calm,Calm,-,N/A,,Clear,0,2013-01-26 00:55:00
7:55 PM,38.1,21.2,51,30.22,10.0,West,4.6,-,N/A,,Clear,280,2013-01-26 01:55:00
8:55 PM,36.7,21.2,54,30.23,10.0,West,3.5,-,N/A,,Clear,260,2013-01-26 02:55:00
9:55 PM,36.3,21.2,54,30.26,10.0,West,3.5,-,N/A,,Clear,280,2013-01-26 03:55:00
10:55 PM,35.6,21.6,57,30.27,10.0,WNW,4.6,-,N/A,,Clear,290,2013-01-26 04:55:00
11:55 PM,35.1,21.6,58,30.26,10.0,West,3.5,-,N/A,,Clear,280,2013-01-26 05:55:00